Location: Meri?or
(45.4500°N, 23.2333°E)
Time: 22:28:33
(UTC+00:00)

Daily predictions for brighter satellites

Satellite Brightness Start Highest point End
(mag) Time Altitude Azimuth Time Altitude Azimuth Time Altitude Azimuth
Cosmos 2279 Rocket 4.2 15:36:41 10° N 15:42:42 49° ENE 15:48:39 10° SSE
Meteor 1-12 Rocket 4.3 15:39:27 10° N 15:45:12 79° E 15:51:02 10° SSE
Cosmos 2228 Rocket 3.8 15:42:53 10° SSE 15:46:55 33° E 15:51:02 10° NNE
Cosmos 1898 Rocket 4.2 15:44:40 10° N 15:49:23 31° ENE 15:54:04 10° ESE
Cosmos 1980 4.0 15:50:51 10° S 15:56:14 49° ESE 16:01:40 10° NE
PSLV R/B 3.3 15:52:14 10° SSE 15:56:16 68° ENE 16:00:20 10° N
SL-16 R/B 3.9 15:53:38 10° SE 15:56:17 13° E 15:58:55 10° ENE
Okean 1-7 4.0 15:58:09 10° SE 16:01:38 25° E 16:05:07 10° NE
SMAP 3.4 15:58:41 10° S 16:03:18 72° WSW 16:07:59 10° NNW
NOSS 0 Rocket 3.9 15:57:43 10° SSW 16:03:51 77° ESE 16:10:01 10° NNE
ATLAS 2AS CENTAUR R/B 3.4 15:59:25 10° NNW 16:05:27 32° NNE 16:11:19 10° E
Lacrosse 5 4.1 16:02:52 10° WNW 16:07:17 30° SW 16:11:40 10° S
Cosmos 1953 2.1 16:05:33 10° N 16:09:14 58° E 16:12:53 10° SSE
ACS3 Solar Sail 2.3 16:05:08 10° SE 16:11:00 40° ENE 16:16:53 10° N
Cosmos 1818 4.5 16:06:24 10° NNW 16:11:08 29° NE 16:15:36 11° E
Cosmos 2369 Rocket 3.7 16:09:31 10° N 16:13:02 17° NE 16:15:05 14° ENE
COSMOS 2428 3.3 16:07:39 10° SW 16:13:15 58° WNW 16:18:53 10° NNE
SKYMED 2 4.0 16:09:12 10° NNE 16:13:22 42° E 16:17:28 10° S
Cosmos 2333 Rocket 4.5 16:11:35 10° W 16:15:13 17° NW 16:18:52 10° N
Cosmos 990 Rocket 4.4 16:13:20 10° NNW 16:18:33 69° WSW 16:23:44 10° S
Cosmos 372 Rocket 4.1 16:14:57 10° NNW 16:19:55 51° ENE 16:24:51 10° SE
DNEPR-1 R/B 3.5 16:15:08 10° NNW 16:19:57 67° NE 16:24:11 10° SE
IGS 5A 3.5 16:16:29 10° S 16:20:29 78° WSW 16:24:31 10° NNW
Cosmos 1174 3.8 16:17:23 10° NW 16:21:06 88° WSW 16:25:38 10° SSE
EO 1 Delta rocket 4.1 16:19:37 10° NNE 16:24:08 45° E 16:28:36 10° SSE
Cosmos 1908 Rocket 4.1 16:27:11 10° N 16:31:07 33° ENE 16:35:00 10° SE
Cosmos 2344 3.8 16:23:46 10° SW 16:31:23 67° NW 16:38:42 10° NE
BREEZE-M TANK 3.3 16:28:44 10° W 16:32:17 61° SSW 16:38:51 10° ESE
Cosmos 1707 Rocket 3.8 16:31:32 10° SSW 16:35:57 75° W 16:40:24 10° N
Okean 3 3.8 16:32:09 10° SSW 16:36:12 65° W 16:40:19 10° N
Meteor 1-31 Rocket 2.6 16:33:59 10° SSE 16:37:26 51° ENE 16:40:56 10° N
Cosmos 1937 Rocket 3.5 16:34:38 10° NNW 16:39:43 57° ENE 16:44:47 10° SE
Okean 2 3.5 16:36:40 10° SSW 16:40:35 72° W 16:44:33 10° N
CZ-4 R/B 4.5 16:39:45 10° S 16:43:45 78° WSW 16:47:47 10° NNW
CZ-2C R/B 3.8 16:48:33 23° NNE 16:48:33 23° NNE 16:50:07 10° N
Cosmos 1943 Rocket 2.6 16:41:28 10° NNW 16:47:06 66° WSW 16:52:38 10° SSE
Cosmos 2237 Rocket 2.5 16:44:39 10° SW 16:50:20 70° WNW 16:56:03 10° NNE
NOAA 15 4.5 16:48:35 10° SSE 16:53:46 70° ENE 16:58:59 10° N
Cosmos 1862 Rocket 4.3 16:49:37 10° SSW 16:53:53 53° WNW 16:58:13 10° N
RESURS DK-1 3.0 16:50:01 10° NW 16:53:57 54° WSW 16:57:53 10° S
NOAA 6 3.9 16:54:10 10° SSE 16:59:16 88° ENE 17:04:26 10° NNW
BlueWalker 3 2.5 16:56:20 10° NW 16:59:46 37° NNE 16:59:51 37° NNE
BREEZE-M DEB (TANK) 2.1 16:57:30 10° W 16:59:48 44° N 17:00:09 41° NNE
Cosmos 2278 Rocket 3.6 16:55:47 10° NW 17:01:02 39° WSW 17:06:13 10° S
COSMO-SKYMED 1 3.1 16:57:12 10° N 17:01:30 61° WNW 17:05:46 10° SSW
CZ-4B R/B 3.6 16:58:48 10° S 17:02:25 79° WSW 17:05:59 10° NNW
CZ-4C R/B 1.9 17:00:45 10° SW 17:05:05 76° NW 17:08:01 26° NNE
ISS -3.2 17:02:33 10° W 17:05:47 46° NNW 17:06:06 44° N
Nadezhda 4 Rocket 4.0 17:01:16 10° S 17:07:24 80° W 17:13:35 10° N
YAOGAN 1 2.6 17:07:08 10° S 17:11:24 78° WSW 17:15:42 10° NNW
Cosmos 2195 Rocket 4.3 17:05:48 10° S 17:11:57 73° E 17:18:05 10° NNE
Meteor 1-24 Rocket 4.1 17:08:56 10° SSE 17:14:28 44° E 17:15:51 38° ENE
ATLAS 5 CENTAUR R/B 0.9 17:11:37 10° SW 17:14:21 65° SSW 17:14:21 65° SSW
YAOGAN 11 3.9 17:14:11 44° NNE 17:15:28 73° ESE 17:19:44 10° S
USA 215 4.3 17:16:12 23° NE 17:19:04 33° N 17:24:45 10° WNW
SPOT 1/Viking Rocket 3.4 17:13:57 10° SSE 17:19:06 79° ENE 17:24:16 10° N
Cosmos 1703 Rocket 3.5 17:18:09 10° S 17:22:36 83° W 17:25:05 26° N
Meteor 2-5 Rocket 3.9 17:19:15 10° SSE 17:24:44 50° E 17:25:03 49° E
Resurs 1-3 3.5 17:22:41 10° SSE 17:27:00 87° WSW 17:31:21 10° NNW
Cosmos 841 Rocket 4.2 17:26:09 10° SW 17:31:15 53° WNW 17:35:00 18° N
Cosmos 1656 Rocket 3.5 17:26:20 10° NNW 17:31:50 76° ENE 17:33:23 48° SE
Cosmos 1703 4.2 17:32:39 10° SSW 17:36:00 41° WNW 17:36:27 39° NW
SL-16 R/B 2.1 17:33:49 10° SSW 17:39:29 89° ESE 17:40:54 53° NNE
Cosmos 1553 Rocket 4.2 17:34:23 10° N 17:39:07 47° NE 17:39:07 47° NE
Cosmos 1814 Rocket 4.4 17:35:56 10° S 17:39:57 48° SSE 17:39:57 48° SSE
ADEOS 4.1 17:48:47 47° N 17:48:47 47° N 17:52:31 10° N
Cosmos 1092 Rocket 4.1 17:47:11 10° SSW 17:53:19 71° W 17:59:34 10° N
ACS3 Solar Sail 3.2 17:48:37 10° SSW 17:54:31 39° W 18:00:28 10° NNW
Cosmos 1818 3.9 17:49:41 10° NW 17:55:04 61° WSW 17:56:18 48° S
Cosmos 839 Rocket 3.8 17:48:55 10° SSW 17:55:34 80° ESE 17:55:54 77° E
ATLAS 2AS CENTAUR R/B 2.7 17:50:12 10° NW 17:56:58 76° WSW 17:59:05 46° SSE
Cosmos 2369 Rocket 2.4 17:52:21 10° NNW 17:56:55 59° N 17:56:55 59° N
Cosmos 2297 4.2 18:15:18 10° NNW 18:20:18 57° W 18:20:18 57° W
BREEZE-M DEB (TANK) 4.2 18:21:55 10° W 18:28:56 42° WNW 18:28:56 42° WNW
CZ-4C R/B 4.3 18:50:48 10° WNW 18:53:04 18° NW 18:53:04 18° NW
